Regional Weather Roundup
Issued by NWS

Home | Current Version | Previous Version | Text Only | Print | Product List | Glossary Off
Versions: 1 2 3 4 5 6 7 8 9 10 11 12 13 14 15 16 17 18 19 20 21 22 23 24 25 26 27 28 29 30 31 32 33 34 35 36 37 38 39 40 41 42 43 44 45 46 47 48 49 50

000
ASUS44 KMEG 272310
RWRTN
TENNESSEE HOURLY STATE WEATHER ROUNDUP
NATIONAL WEATHER SERVICE MEMPHIS TN
600 PM CDT SAT AUG 27 2016

TNZ002-004-019-021-049-052-054-088>092-280000-
WEST TENNESSEE

CITY           SKY/WX    TMP DP  RH WIND       PRES   REMARKS
MEMPHIS INTL   CLOUDY    91  70  49 NE9       30.00S HX  96
NWS MEMPHIS      N/A     89 N/A N/A MISG        N/A
JACKSON        CLOUDY    85  78  80 CALM      30.03R HX  96
DYERSBURG      SUNNY     97  72  44 CALM      30.01S HX 105
UNION CITY     MOSUNNY   90  72  55 NE6       30.02S HX  96
PARIS          SUNNY     82  73  74 CALM      30.06S
$$

TNZ008-025-027-028-033-062-065-066-280000-
NORTH MIDDLE TENNESSEE

CITY           SKY/WX    TMP DP  RH WIND       PRES   REMARKS
NASHVILLE      CLOUDY    78  73  84 VRB3      30.08F
CLARKSVILLE    CLOUDY    82  71  69 SE7       30.08R THUNDER
SMYRNA         SUNNY     77  72  83 NW3       30.08F
COOKEVILLE     SUNNY     82  70  65 NW5       30.09R
CROSSVILLE     PTSUNNY   87  66  49 VRB3      30.14R
$$

TNZ061-075-076-078-094-096-097-280000-
SOUTH MIDDLE TENNESSEE

CITY           SKY/WX    TMP DP  RH WIND       PRES   REMARKS
FAYETTEVILLE   SUNNY     84  75  74 NE8       30.07R HX  92
TULLAHOMA      SUNNY     82  70  65 N8        30.11R
WINCHESTER     SUNNY     84  73  70 N6        30.09R HX  91
MCMINNVILLE    MOSUNNY   82  75  78 W3        30.12R
COLUMBIA       PTSUNNY   81  81 100 NW5       30.07S HX  91
SHELBYVILLE    SUNNY     84  75  74 N7        30.10R HX  92
$$

TNZ017-018-042-046-047-280000-
NORTHEAST TENNESSEE

CITY           SKY/WX    TMP DP  RH WIND       PRES   REMARKS
TRI CITIES     CLOUDY    85  67  54 S6        30.13R
ELIZABETHTON   CLOUDY    81  72  74 CALM      30.14R
$$

TNZ012-013-036-069-073-074-280000-
CENTRAL EAST TENNESSEE

CITY           SKY/WX    TMP DP  RH WIND       PRES   REMARKS
KNOXVILLE      PTSUNNY   77  70  79 S3        30.09R
OAK RIDGE      CLOUDY    86  67  52 CALM      30.10R
GATLINBURG       N/A     77  66  69 SW14      30.12R
MORRISTOWN     SUNNY     86  70  58 SW12      30.10R HX  90
$$

TNZ083-085-099-280000-
SOUTHEAST TENNESSEE

CITY           SKY/WX    TMP DP  RH WIND       PRES   REMARKS
CHATTANOOGA    PTSUNNY   89  71  55 N10       30.05S HX  95
$$

SKY/WX REPORTED AS FAIR MEANS FEW OR NO CLOUDS BELOW
12 THOUSAND FEET.





USA.gov is the U.S. government's official web portal to all federal, state and local government web resources and services.